Tracking 28790 objects as of 19-Apr-2024
HD Live streaming from Space Station
objects crossing your sky now

COSMOS 872

Track COSMOS 872 now!
10-day predictions
COSMOS 872 is classified as:


NORAD ID: 9589
Int'l Code: 1976-118B
Perigee: 1,405.3 km
Apogee: 1,470.6 km
Inclination: 74.0 °
Period: 114.5 minutes
Semi major axis: 7808 km
RCS: 0.7031 m2 (medium)
Launch date: December 7, 1976
Source: Commonwealth of Independent States (former USSR) (CIS)
Launch site: PLESETSK MISSILE AND SPACE COMPLEX (PKMTR)
Your satellite tracking list
Your tracking list is empty




NASA's NSSDC Master Catalog

Two Line Element Set (TLE):
1 09589U 76118B   24109.95374090  .00000019  00000-0  21117-3 0  9992
2 09589  74.0298 309.4633 0041830 334.4360 131.8192 12.58088988175241
Source of the keplerian elements: AFSPC